When you browse on this site, cookies collect data to enhance your experience and personalize the content and advertising you see.
Visit our Privacy Policy to learn more. By continuing to use the site, you agree to this use of cookies and data.
  • In Czech Republic
  • List of Countries
  • For 7 days
  • Water Temperature
  • Satellite Maps
  • Weather Map
  • Weather Widgets
  • user-avatar
    Login

    Hourly Weather Merrillville

    Today, 26 April, Friday

    Time Temperature Precipitation Wind Pressure Humidity
    00:00 +7°C° 0 mm 9 mps 735 mmHg 84%
    01:00 +7°C° 0.5 mm 8 mps 735 mmHg 80%
    02:00 +7°C° 0.5 mm 8 mps 736 mmHg 76%
    03:00 +8°C° 0.5 mm 7 mps 736 mmHg 72%
    04:00 +8°C° 0 mm 7 mps 736 mmHg 74%
    05:00 +9°C° 0 mm 6 mps 737 mmHg 77%
    06:00 +9°C° 0 mm 5 mps 737 mmHg 80%
    07:00 +10°C° 0 mm 6 mps 737 mmHg 70%
    08:00 +11°C° 0 mm 7 mps 738 mmHg 60%
    09:00 +12°C° 0 mm 8 mps 738 mmHg 51%
    10:00 +13°C° 0 mm 8 mps 738 mmHg 44%
    11:00 +15°C° 0 mm 8 mps 739 mmHg 38%
    12:00 +15°C° 0 mm 8 mps 739 mmHg 31%
    13:00 +16°C° 0 mm 8 mps 740 mmHg 32%
    14:00 +16°C° 0 mm 8 mps 740 mmHg 33%
    15:00 +16°C° 0 mm 7 mps 740 mmHg 33%
    16:00 +15°C° 0 mm 7 mps 740 mmHg 36%
    17:00 +14°C° 0 mm 6 mps 741 mmHg 39%
    18:00 +13°C° 0 mm 6 mps 741 mmHg 42%
    19:00 +12°C° 0 mm 5 mps 741 mmHg 45%
    20:00 +11°C° 0 mm 4 mps 742 mmHg 48%
    21:00 +10°C° 0 mm 3 mps 742 mmHg 50%
    22:00 +9°C° 0 mm 3 mps 742 mmHg 54%
    23:00 +8°C° 0 mm 2 mps 743 mmHg 57%

    Tomorrow, 27 April, Saturday

    Time Temperature Precipitation Wind Pressure Humidity
    00:00 +9°C° 0 mm 1 mps 743 mmHg 60%
    01:00 +8°C° 0 mm 1 mps 743 mmHg 62%
    02:00 +8°C° 0 mm 1 mps 743 mmHg 64%
    03:00 +7°C° 0 mm 1 mps 743 mmHg 65%
    04:00 +6°C° 0 mm 2 mps 743 mmHg 64%
    05:00 +5°C° 0 mm 3 mps 742 mmHg 63%
    06:00 +6°C° 0 mm 4 mps 742 mmHg 62%
    07:00 +6°C° 0.3 mm 4 mps 742 mmHg 62%
    08:00 +6°C° 0.3 mm 4 mps 742 mmHg 61%
    09:00 +6°C° 0.3 mm 4 mps 742 mmHg 61%
    10:00 +5°C° 1.1 mm 4 mps 741 mmHg 64%
    11:00 +5°C° 1.1 mm 5 mps 741 mmHg 66%
    12:00 +5°C° 1.1 mm 5 mps 741 mmHg 68%
    13:00 +4°C° 1.3 mm 6 mps 740 mmHg 73%
    14:00 +4°C° 1.3 mm 6 mps 738 mmHg 77%
    15:00 +3°C° 1.3 mm 7 mps 737 mmHg 81%
    16:00 +3°C° 1.5 mm 7 mps 736 mmHg 83%
    17:00 +2°C° 1.5 mm 8 mps 735 mmHg 86%
    18:00 +1°C° 1.5 mm 8 mps 734 mmHg 88%
    19:00 +1°C° 2.3 mm 9 mps 735 mmHg 88%
    20:00 0°C° 2.3 mm 10 mps 735 mmHg 88%
    21:00 -1°C° 2.3 mm 11 mps 736 mmHg 88%
    22:00 -2°C° 0.2 mm 11 mps 737 mmHg 87%
    23:00 -2°C° 0.2 mm 10 mps 738 mmHg 86%

    Day after tomorrow, 28 April, Sunday

    Time Temperature Precipitation Wind Pressure Humidity
    00:00 -2°C° 0.2 mm 10 mps 740 mmHg 85%
    01:00 -1°C° 0 mm 8 mps 741 mmHg 82%
    02:00 -1°C° 0 mm 7 mps 742 mmHg 79%
    03:00 0°C° 0 mm 5 mps 744 mmHg 76%
    04:00 0°C° 0 mm 4 mps 744 mmHg 74%
    05:00 0°C° 0 mm 4 mps 745 mmHg 72%
    06:00 +1°C° 0 mm 3 mps 746 mmHg 71%
    07:00 +3°C° 0 mm 3 mps 746 mmHg 63%
    08:00 +4°C° 0 mm 3 mps 747 mmHg 56%
    09:00 +5°C° 0 mm 3 mps 748 mmHg 48%
    10:00 +6°C° 0 mm 4 mps 748 mmHg 46%
    11:00 +7°C° 0 mm 4 mps 748 mmHg 44%
    12:00 +8°C° 0 mm 5 mps 749 mmHg 43%
    13:00 +9°C° 0 mm 5 mps 748 mmHg 43%
    14:00 +9°C° 0 mm 5 mps 748 mmHg 44%
    15:00 +9°C° 0 mm 5 mps 748 mmHg 45%
    16:00 +10°C° 0 mm 4 mps 748 mmHg 50%
    17:00 +8°C° 0 mm 4 mps 747 mmHg 56%
    18:00 +8°C° 0 mm 4 mps 747 mmHg 61%
    19:00 +7°C° 0 mm 4 mps 747 mmHg 64%
    20:00 +7°C° 0 mm 4 mps 747 mmHg 66%
    21:00 +6°C° 0 mm 5 mps 748 mmHg 69%
    22:00 +6°C° 0 mm 5 mps 747 mmHg 68%
    23:00 +6°C° 0 mm 5 mps 747 mmHg 67%

    29 April, Monday

    Time Temperature Precipitation Wind Pressure Humidity
    00:00 +5°C° 0 mm 6 mps 747 mmHg 66%
    01:00 +6°C° 0.6 mm 5 mps 747 mmHg 70%
    02:00 +6°C° 0.6 mm 5 mps 746 mmHg 73%
    03:00 +5°C° 0.6 mm 5 mps 745 mmHg 77%
    04:00 +5°C° 1.2 mm 5 mps 745 mmHg 78%
    05:00 +4°C° 1.2 mm 6 mps 744 mmHg 80%
    06:00 +4°C° 1.2 mm 7 mps 744 mmHg 82%
    07:00 +4°C° 2.9 mm 6 mps 744 mmHg 85%
    08:00 +5°C° 2.9 mm 4 mps 743 mmHg 88%
    09:00 +5°C° 2.9 mm 3 mps 743 mmHg 92%
    10:00 +5°C° 1.9 mm 3 mps 743 mmHg 92%
    11:00 +7°C° 1.9 mm 3 mps 743 mmHg 91%
    12:00 +6°C° 1.9 mm 4 mps 743 mmHg 91%
    13:00 +9°C° 0 mm 3 mps 742 mmHg 85%
    14:00 +13°C° 0 mm 2 mps 742 mmHg 80%
    15:00 +15°C° 0 mm 1 mps 742 mmHg 74%
    16:00 +15°C° 0 mm 2 mps 743 mmHg 76%
    17:00 +14°C° 0 mm 2 mps 743 mmHg 79%
    18:00 +12°C° 0 mm 3 mps 744 mmHg 82%
    19:00 +11°C° 0 mm 3 mps 744 mmHg 84%
    20:00 +9°C° 0 mm 3 mps 745 mmHg 86%
    21:00 +8°C° 0 mm 3 mps 745 mmHg 88%
    22:00 +7°C° 0 mm 3 mps 745 mmHg 90%
    23:00 +7°C° 0 mm 3 mps 745 mmHg 92%

    30 April, Tuesday

    Time Temperature Precipitation Wind Pressure Humidity
    00:00 +5°C° 0 mm 3 mps 746 mmHg 93%
    01:00 +7°C° 0.3 mm 3 mps 746 mmHg 93%
    02:00 +7°C° 0.3 mm 3 mps 746 mmHg 94%
    03:00 +7°C° 0.3 mm 2 mps 746 mmHg 94%
    04:00 +7°C° 0.2 mm 3 mps 746 mmHg 93%
    05:00 +6°C° 0.2 mm 4 mps 746 mmHg 93%
    06:00 +6°C° 0.2 mm 4 mps 746 mmHg 92%
    07:00 +5°C° 0.9 mm 5 mps 747 mmHg 92%
    08:00 +5°C° 0.9 mm 5 mps 747 mmHg 92%
    09:00 +4°C° 0.9 mm 6 mps 747 mmHg 92%
    10:00 +6°C° 1 mm 5 mps 747 mmHg 91%
    11:00 +6°C° 1 mm 4 mps 747 mmHg 90%
    12:00 +7°C° 1 mm 4 mps 747 mmHg 89%
    13:00 +8°C° 1 mm 4 mps 746 mmHg 89%
    14:00 +8°C° 1 mm 4 mps 746 mmHg 89%
    15:00 +8°C° 1 mm 4 mps 745 mmHg 89%
    16:00 +8°C° 1.2 mm 4 mps 745 mmHg 91%
    17:00 +8°C° 1.2 mm 4 mps 745 mmHg 92%
    18:00 +8°C° 1.2 mm 4 mps 744 mmHg 94%
    19:00 +8°C° 1.2 mm 4 mps 744 mmHg 95%
    20:00 +10°C° 1.2 mm 4 mps 743 mmHg 96%
    21:00 +10°C° 1.2 mm 4 mps 743 mmHg 97%
    22:00 +10°C° 2 mm 4 mps 742 mmHg 97%
    23:00 +11°C° 2 mm 3 mps 741 mmHg 98%

    1 May, Wednesday

    Time Temperature Precipitation Wind Pressure Humidity
    00:00 +11°C° 2 mm 3 mps 740 mmHg 98%
    01:00 +11°C° 0.6 mm 3 mps 740 mmHg 98%
    02:00 +11°C° 0.6 mm 3 mps 739 mmHg 98%
    03:00 +11°C° 0.6 mm 3 mps 738 mmHg 98%
    04:00 +10°C° 0.1 mm 3 mps 739 mmHg 97%
    05:00 +10°C° 0.1 mm 3 mps 739 mmHg 96%
    06:00 +8°C° 0.1 mm 4 mps 740 mmHg 94%
    07:00 +8°C° 0.1 mm 4 mps 741 mmHg 93%
    08:00 +8°C° 0.1 mm 4 mps 741 mmHg 91%
    09:00 +8°C° 0.1 mm 4 mps 742 mmHg 89%
    10:00 +8°C° 0.1 mm 5 mps 743 mmHg 89%
    11:00 +7°C° 0.1 mm 5 mps 743 mmHg 88%
    12:00 +7°C° 0.1 mm 6 mps 744 mmHg 87%
    13:00 +8°C° 0 mm 5 mps 744 mmHg 84%
    14:00 +10°C° 0 mm 5 mps 745 mmHg 80%
    15:00 +12°C° 0 mm 5 mps 745 mmHg 76%
    16:00 +12°C° 0 mm 5 mps 746 mmHg 78%
    17:00 +10°C° 0 mm 5 mps 746 mmHg 81%
    18:00 +11°C° 0 mm 4 mps 747 mmHg 84%
    19:00 +10°C° 0 mm 4 mps 747 mmHg 83%
    20:00 +9°C° 0 mm 5 mps 747 mmHg 83%
    21:00 +8°C° 0 mm 5 mps 748 mmHg 82%
    22:00 +8°C° 0 mm 5 mps 748 mmHg 83%
    23:00 +7°C° 0 mm 4 mps 747 mmHg 84%
    Show more